Tracking 19490 objects as of 24-Jan-2019
HD Live streaming from Space Station
objects crossing your sky now

FENGYUN 1C DEB

Track FENGYUN 1C DEB now!
10-day predictions


NORAD ID: 30441
Int'l Code: 1999-025AFC
Perigee: 849.6 km
Apogee: 1,128.5 km
Inclination: 98.9 °
Period: 104.7 minutes
Semi major axis: 7360 km
RCS: 0.038 m2 (small)
Launch date: May 10, 1999
Source: People's Republic of China (PRC)
Launch site: Taiyaun Space Center, China (TSC)

Note: This is SATELLITE DEBRIS
aabbcc
Your satellite tracking list
Your tracking list is empty




NASA's NSSDC Master Catalog

Two Line Element Set (TLE):
1 30441U 99025AFC 19024.03021543  .00000091  00000-0  11952-3 0  9992
2 30441  98.9444 201.7172 0189451  79.3977 282.8450 13.74932417603012
Source of the keplerian elements: AFSPC